Location: Marsån
(66.4167°N, 22.2833°E)
Time: 02:05:21
(UTC+00:00)

Cosmos 2084 - Pass Details

Date: 24 February 2024
Orbit: 491 x 655 km, 62.8° (Epoch: 14 April)

Event Time Altitude Azimuth Distance (km) Brightness Sun altitude
Rises 18:32:44 0° 279° (W) 2,603 8.3 -19.3°
Reaches altitude 10° 18:35:01 10° 270° (W) 1,705 6.8 -19.5°
Maximum altitude 18:38:28 34° 205° (SSW) 833 4.2 -19.8°
Enters shadow 18:39:01 32° 186° (S) 865 4.1 -19.9°
